Location: Unspecified
(0.0000°N, 0.0000°E)
Time: 20:28:29
(UTC+01:00)

Ariane H10+ - Visible Passes

Search period start: 24 February 2017 00:00
Search period end: 06 March 2017 00:00
Orbit: 317 x 31344 km, 6.9° (Epoch: 24 February)

Date Brightness Start Highest point End Pass type
(mag) Time Alt. Az. Time Alt. Az. Time Alt. Az.
24 Feb 6.6 03:56:23 10° W 05:35:27 33° W 12:03:09 10° ENE visible
24 Feb 7.3 21:32:11 10° W 21:45:02 81° S 05:57:56 10° E visible
26 Feb 8.5 01:14:51 10° W 03:11:38 70° WSW 09:41:55 10° ENE visible
26 Feb 5.2 19:11:06 10° W 19:15:56 90° NNW 03:10:27 10° E visible
27 Feb 10.2 06:10:16 10° W 06:49:23 12° W 07:40:25 10° W visible
27 Feb 8.3 22:48:07 10° W 23:14:53 80° S 07:17:44 10° E visible
01 Mar 7.4 02:38:16 10° W 04:28:35 48° WSW 10:56:58 10° ENE visible
01 Mar 6.5 20:25:39 10° W 20:34:05 81° S 04:45:08 10° E visible
03 Mar 8.6 00:05:11 10° W 02:32:25 82° SSW 08:34:35 10° E visible
03 Mar 10.9 23:41:35 10° E 00:35:07 12° E 01:15:29 10° E visible
04 Mar 6.4 04:13:14 10° W 05:43:40 26° W 12:11:13 10° ENE visible
04 Mar 7.7 21:40:28 10° W 21:56:15 79° S 06:07:47 10° E visible
